[[{"header":{"parameterUnit":"m.s-1","parameterCategory":1,"la1":30.2992,"la2":30.254,"lo1":-89.0895,"lo2":-89.0443,"dy":0.0025,"dx":0.0025,"nx":19,"ny":19,"refTime":"2026-03-19T09:00:00:Z","depth":0,"parameterNumber":2,"parameterNumberName":"U-component_of_WINDS"},"data":[0,0,0,0.2554,0.2557,0.2727,0.2728,0.2927,0.2929,0,0,0,0,0,0,0,0,0,0,0,0.2492,0.2492,0.2554,0.2557,0.2727,0.2728,0.2927,0.2929,0,0,0,0,0,0,0,0,0,0,0,0.2491,0.2492,0.2493,0.2558,0.2727,0.2728,0.2926,0.2805,0,0,0,0,0,0,0,0,0,0,0.2643,0.2574,0.2492,0.2493,0.2559,0.2727,0.2728,0.2799,0.2812,0.2842,0,0.2864,0,0.2899,0.2941,0.2941,0,0,0,0.2567,0.2563,0.2619,0.2494,0.256,0.2727,0.2653,0.2807,0.2822,0.2859,0.2867,0.2875,0.2903,0.2942,0.2943,0.308,0.308,0,0,0.2557,0.2516,0.2609,0.2628,0.26,0.2648,0.2658,0.2816,0.2823,0.2868,0.288,0.2906,0.2943,0.2944,0.308,0.308,0,0,0,0.2524,0.2509,0.2562,0.2619,0.2651,0.2652,0.2665,0.2816,0.2836,0.2883,0.2908,0.2944,0.2946,0.308,0.308,0.305,0,0,0,0.2519,0.249,0.2557,0.2534,0.2648,0.2735,0.266,0.2825,0.2845,0.2907,0.2944,0.2948,0.308,0.308,0.305,0.3043,0,0,0,0.2485,0.2486,0.2506,0.2531,0.2603,0.2734,0.2764,0.283,0.286,0.2942,0.2949,0.3079,0.308,0.3051,0.3043,0.3066,0,0,0,0.2436,0.2477,0.2505,0.2561,0.2601,0.2714,0.2763,0.285,0.2916,0.2945,0.308,0.308,0.3051,0.3044,0.3066,0.3078,0.3079,0,0,0.2465,0.2479,0.2516,0.2546,0.2642,0.2691,0.2784,0.2885,0.2931,0.3028,0.3032,0.305,0.3043,0.3066,0.3099,0.3099,0,0,0,0.2511,0.2537,0.2572,0.2632,0.2709,0.2775,0.2866,0.2903,0.2987,0.2972,0.3066,0.3063,0.3079,0.3086,0.3087,0.3102,0.3082,0.3082,0.3081,0.2493,0.2549,0.2613,0.269,0.2748,0.2841,0.2893,0.296,0.3,0.3021,0.305,0.3063,0.307,0.3071,0.3086,0.3061,0.3061,0.3061,0.3061,0.2541,0.2586,0.2638,0.2718,0.2777,0.2846,0.2937,0.2963,0.3036,0.3046,0.3062,0.3068,0.3069,0.3086,0.3059,0.3059,0.3059,0.306,0.306,0.2535,0.2567,0.2611,0.2704,0.277,0.2847,0.2914,0.2966,0.3015,0.3031,0.3068,0.3068,0.3076,0.3045,0.3045,0.3045,0.3045,0.3045,0.3045,0.2512,0.2563,0.2613,0.2698,0.2743,0.281,0.2904,0.2951,0.3016,0.3048,0.3049,0.3086,0.3059,0.3051,0.3046,0.3046,0.3046,0.3046,0.3046,0.2539,0.2541,0.2618,0.2664,0.2768,0.283,0.2895,0.2986,0.3033,0.3064,0.3099,0.307,0.3088,0.3088,0.3082,0.3086,0.3086,0.3086,0.3086,0.2534,0.2548,0.2639,0.2709,0.2783,0.285,0.2935,0.3008,0.3084,0.3117,0.3124,0.312,0.3117,0.3137,0.3136,0.3131,0.3148,0.3148,0.3148,0.2554,0.2578,0.264,0.2714,0.2799,0.2872,0.2954,0.3033,0.3119,0.3152,0.3143,0.314,0.3135,0.313,0.3161,0.3159,0.3151,0,0]},{"header":{"parameterUnit":"m.s-1","parameterCategory":1,"la1":30.2992,"la2":30.254,"lo1":-89.0895,"lo2":-89.0443,"dy":0.0025,"dx":0.0025,"nx":19,"ny":19,"refTime":"2026-03-19T09:00:00:Z","depth":0,"parameterNumber":3,"parameterNumberName":"V-component_of_WINDS"},"data":[0,0,0,4.4268,4.4268,4.4256,4.4255,4.4263,4.4264,0,0,0,0,0,0,0,0,0,0,0,4.4287,4.4288,4.4268,4.4268,4.4256,4.4255,4.4263,4.4264,0,0,0,0,0,0,0,0,0,0,0,4.4287,4.4287,4.4288,4.4268,4.4256,4.4255,4.4263,4.4264,0,0,0,0,0,0,0,0,0,0,4.4272,4.4304,4.4287,4.4288,4.4268,4.4256,4.4255,4.4264,4.4264,4.4279,0,4.4297,0,4.4281,4.4266,4.4266,0,0,0,4.4257,4.4304,4.4287,4.4288,4.4268,4.4256,4.4258,4.4264,4.4264,4.428,4.4297,4.4297,4.4281,4.4266,4.4266,4.4392,4.4393,0,0,4.4258,4.4293,4.4287,4.4288,4.4292,4.4259,4.4258,4.4263,4.4285,4.4297,4.4297,4.4281,4.4266,4.4266,4.4391,4.4393,0,0,0,4.4267,4.4294,4.4276,4.4289,4.4285,4.4259,4.4258,4.4284,4.4276,4.4297,4.4281,4.4266,4.4267,4.439,4.4392,4.4481,0,0,0,4.4267,4.4299,4.4277,4.4298,4.4285,4.4284,4.4279,4.4275,4.4275,4.4281,4.4266,4.4267,4.4389,4.4391,4.4476,4.4518,0,0,0,4.4283,4.4301,4.4304,4.43,4.4296,4.4283,4.4275,4.4274,4.4266,4.4266,4.4267,4.4388,4.4391,4.4471,4.451,4.4562,0,0,0,4.4309,4.4384,4.4306,4.4384,4.4296,4.4339,4.4274,4.4304,4.4315,4.4266,4.4389,4.4392,4.447,4.4506,4.4557,4.4612,4.4638,0,0,4.4423,4.4399,4.4442,4.4372,4.4437,4.4338,4.4416,4.4392,4.436,4.4383,4.4386,4.4478,4.451,4.4561,4.4769,4.479,0,0,0,4.449,4.4521,4.453,4.4542,4.4526,4.4515,4.4476,4.4467,4.4485,4.4379,4.4509,4.4527,4.4555,4.458,4.4597,4.4619,4.4404,4.4404,4.4404,4.4702,4.4656,4.4724,4.4677,4.4689,4.4647,4.4652,4.4633,4.4584,4.4615,4.4622,4.4754,4.4784,4.4797,4.4821,4.4646,4.4647,4.4647,4.4647,4.4865,4.4902,4.4834,4.4875,4.4827,4.486,4.4823,4.4786,4.4811,4.4745,4.4768,4.4702,4.4822,4.484,4.4654,4.4653,4.4652,4.4651,4.4651,4.5,4.501,4.4997,4.5009,4.5022,4.4971,4.4998,4.4952,4.4909,4.4931,4.4934,4.4932,4.4925,4.4936,4.4936,4.4936,4.4937,4.4937,4.4937,4.5145,4.5128,4.5156,4.5144,4.5145,4.514,4.5098,4.5098,4.5085,4.505,4.505,4.4998,4.4842,4.4804,4.4944,4.4943,4.4942,4.4942,4.4941,4.5329,4.528,4.5323,4.5324,4.5306,4.5323,4.5263,4.5266,4.5259,4.5273,4.5215,4.5107,4.5079,4.5065,4.5034,4.5225,4.5225,4.5225,4.5225,4.5444,4.5425,4.5458,4.5463,4.5461,4.5412,4.5462,4.5429,4.5388,4.538,4.5345,4.5299,4.5287,4.5266,4.5247,4.5217,4.5451,4.5451,4.5452,4.5554,4.5533,4.5585,4.5543,4.5525,4.5511,4.5556,4.5563,4.5506,4.546,4.5373,4.5364,4.5289,4.5267,4.5221,4.5192,4.5136,0,0]}]]